Skip Page Navigation
NASA JPL Caltech
NASA Logo - Jet Propulsion Laboratory + View the NASA Portal
+ Center for Near-Earth Object Studies
JPL Home Earth Solar System Stars & Galaxies Technology
JPL Solar System Dynamics
BODIES ORBITS EPHEMERIDES TOOLS PHYSICAL DATA DISCOVERY FAQ SITE MAP
IMPORTANT: The SSD Announcement email list is now available. Major changes are coming in the near future, including possible hostname and/or URL changes. To be notified of such changes, subscribe to this email list.

Please visit this page for more details.


JPL Small-Body Database Browser
Search: [ help ]  
65322 (2002 KS)
Classification: Outer Main-belt Asteroid          SPK-ID: 2065322
Ephemeris | Orbit Diagram | Orbital Elements | Mission Design | Physical Parameters | Discovery Circumstances | Close-Approach Data ]

[ show orbit diagram ]
Orbital Elements at Epoch 2459000.5 (2020-May-31.0) TDB
Reference: JPL 15 (heliocentric ecliptic J2000)
 Element Value Uncertainty (1-sigma)   Units 
e .06587221135594307 5.2289e-08  
a 3.216970803427931 2.9927e-08 au
q 3.005061822738628 1.7598e-07 au
i 6.158146644139959 5.1097e-06 deg
node 291.8000279846314 5.1395e-05 deg
peri 50.18793366599957 6.4309e-05 deg
M 282.8529224854674 4.1363e-05 deg
tp 2459452.133433002932
(2021-Aug-25.63343300)
0.00024515 TDB
period 2107.507388733266
5.77
2.9409e-05
8.052e-08
d
yr
n .1708179064636071 2.3836e-09 deg/d
Q 3.428879784117234 3.1898e-08 au
  Orbit Determination Parameters
   # obs. used (total)      829  
   data-arc span      8861 days (24.26 yr)  
   first obs. used      1995-02-03  
   last obs. used      2019-05-09  
   planetary ephem.      DE431  
   SB-pert. ephem.      SB431-N16  
   condition code      0  
   norm. resid. RMS      .53277  
   source      ORB  
   producer      Otto Matic  
   solution date      2019-May-30 05:26:14  

Additional Information
 Earth MOID = 2.00092 au 
 Jupiter MOID = 1.87677 au 
 T_jup = 3.178 
[ show covariance matrix ]

Ephemeris | Orbit Diagram | Orbital Elements | Mission Design | Physical Parameters | Discovery Circumstances | Close-Approach Data ]

Physical Parameter Table
Parameter Symbol Value Units Sigma Reference Notes
absolute magnitude H 14.2   n/a MPO347951  

65322 (2002 KS)          Discovered 2002-May-16 by NEAT at Haleakala
Reference: 20030614/Numbers.arcLast Updated: 2004-04-19

[ show close-approach data ]
Alternate Designations
 2002 KS = 1999 XH222 
Ephemeris | Orbit Diagram | Orbital Elements | Mission Design | Physical Parameters | Discovery Circumstances | Close-Approach Data ]
ABOUT SSD CREDITS/AWARDS PRIVACY/COPYRIGHT GLOSSARY LINKS
FirstGov 2020-Apr-03 01:49 UT
(server date/time)  
NASA Home Page
Site Manager:   Ryan S. Park
Webmaster  Alan B. Chamberlin